Change the Weather History Date:

Thursday, June 19, 2014

  Actual Average Record
Temperature  
Mean Temperature 69 °F 69 °F  
Max Temperature 74 °F 81 °F 97 °F (1953)
Min Temperature 64 °F 58 °F 40 °F (1926)
Degree Days  
Heating Degree Days 0 1  
Month to date heating degree days 13 38  
Since 1 June heating degree days 13 38  
Since 1 July heating degree days 8623 7673  
Cooling Degree Days 4 5  
Month to date cooling degree days 61 70  
Year to date cooling degree days 114 105  
Since 1 June cooling degree days 61 70  
Growing Degree Days 20 (Base 50)    
Moisture  
Dew Point 67 °F    
Average Humidity 90    
Maximum Humidity 100    
Minimum Humidity 79    
Precipitation  
Precipitation 1.65 in 0.18 in 1.65 in (2014)
Month to date precipitation 6.66 3.32  
Year to date precipitation 20.70 15.80  
Snow  
Snow 0.00 in 0.00 in - ()
Month to date snowfall 0.0 0.0  
Since 1 June snowfall 0.0 0.0  
Since 1 July snowfall 58.0 41.2  
Snow Depth 0.00 in    
Sea Level Pressure  
Sea Level Pressure 29.94 in    
Wind  
Wind Speed 14 mph (SE)    
Max Wind Speed 32 mph    
Max Gust Speed 42 mph    
Visibility 8 miles    
Events Rain    
T = Trace of Precipitation, MM = Missing Value Source: NWS Daily Summary

Daily Weather History Graph

Daily Weather History Graph

Search for Another Location

Airport or City:

Trip Planner

Search our weather history database for the weather conditions in past years. The results will help you decide how hot, cold, wet, or windy it might be!

Date:

Astronomy

Jun. 19, 2014 Rise Set
Actual Time 5:33 AM CDT 8:56 PM CDT
Civil Twilight 4:57 AM CDT 9:31 PM CDT
Nautical Twilight 4:11 AM CDT 10:18 PM CDT
Astronomical Twilight 3:13 AM CDT 11:15 PM CDT
Moon 12:49 AM CDT 1:15 PM CDT
Length of Visible Light 16h 33m
Length of Day
15h 22m
Waning Gibbous, 51% of the Moon is Illuminated
Jun 19
Waning Gibbous
Jun 19
Last Quarter
Jun 27
New
Jul 5
First Quarter
Jul 12
Full

Hourly Weather History & Observations

Time (CDT) Temp. Dew Point Humidity Pressure Visibility Wind Dir Wind Speed Gust Speed Precip Events Conditions
12:53 AM 73.0 °F 69.1 °F 87% 29.87 in 10.0 mi East 16.1 mph - N/A   Overcast
2:53 AM 69.1 °F 66.0 °F 90% 29.85 in 10.0 mi ESE 17.3 mph 27.6 mph 0.01 in   Overcast
3:53 AM 69.1 °F 66.9 °F 93% 29.83 in 9.0 mi ESE 20.7 mph 33.4 mph 0.01 in Rain Light Rain
4:53 AM 66.2 °F 66.2 °F 100% 29.89 in 4.0 mi SE 19.6 mph 31.1 mph N/A Rain Light Rain
5:27 AM 66.9 °F 66.0 °F 97% 29.92 in 6.0 mi ESE 11.5 mph - 0.16 in Rain Light Rain
5:53 AM 66.0 °F 64.9 °F 96% 29.89 in 2.0 mi SE 20.7 mph 25.3 mph 0.33 in Rain Heavy Rain
5:59 AM 66.9 °F 64.9 °F 93% 29.93 in 3.0 mi SE 20.7 mph 27.6 mph 0.05 in Rain Heavy Rain
6:53 AM 66.0 °F 64.9 °F 96% 29.94 in 2.5 mi SE 16.1 mph 23.0 mph 0.37 in Rain Heavy Rain
7:03 AM 66.0 °F 64.9 °F 96% 29.98 in 1.8 mi SE 19.6 mph 25.3 mph 0.16 in Rain Heavy Rain
7:22 AM 66.0 °F 64.9 °F 96% 29.97 in 3.0 mi ESE 21.9 mph 36.8 mph 0.51 in Rain Rain
7:29 AM 66.0 °F 64.9 °F 96% 29.97 in 5.0 mi ESE 20.7 mph 32.2 mph 0.52 in Rain Light Rain
7:50 AM 66.2 °F 64.4 °F 94% 29.96 in 9.0 mi SE 16.1 mph 29.9 mph 0.54 in Rain Light Rain
7:53 AM 66.0 °F 64.9 °F 96% 29.94 in 10.0 mi SE 16.1 mph 25.3 mph 0.54 in Rain Light Rain
8:53 AM 66.0 °F 64.9 °F 96% 29.94 in 4.0 mi East 12.7 mph - 0.06 in Rain Light Rain
9:02 AM 66.0 °F 64.9 °F 96% 29.98 in 2.5 mi ESE 13.8 mph - 0.03 in Rain Light Rain
9:09 AM 66.0 °F 64.9 °F 96% 29.99 in 7.0 mi ESE 10.4 mph 21.9 mph 0.03 in Rain Light Rain
9:42 AM 66.0 °F 64.9 °F 96% 29.97 in 3.0 mi East 16.1 mph - 0.12 in Rain Light Rain
9:51 AM 66.2 °F 64.4 °F 94% 29.97 in 8.0 mi East 11.5 mph - 0.12 in Rain Light Rain
9:53 AM 66.0 °F 64.9 °F 96% 29.93 in 9.0 mi East 12.7 mph - 0.12 in Rain Light Rain
10:06 AM 66.9 °F 66.0 °F 97% 29.97 in 10.0 mi East 12.7 mph - 0.00 in   Mostly Cloudy
10:20 AM 68.0 °F 66.0 °F 93% 29.97 in 10.0 mi ESE 16.1 mph 23.0 mph 0.00 in   Scattered Clouds
10:53 AM 68.0 °F 66.0 °F 93% 29.96 in 10.0 mi ESE 18.4 mph 25.3 mph 0.00 in   Mostly Cloudy
11:22 AM 66.9 °F 64.9 °F 93% 29.97 in 10.0 mi ESE 18.4 mph 26.5 mph N/A   Partly Cloudy
11:53 AM 68.0 °F 66.0 °F 93% 29.94 in 10.0 mi SE 19.6 mph 25.3 mph N/A   Partly Cloudy
12:04 PM 68.0 °F 66.9 °F 96% 29.97 in 10.0 mi SE 17.3 mph 24.2 mph N/A   Mostly Cloudy
12:53 PM 69.1 °F 66.9 °F 93% 29.89 in 10.0 mi ESE 19.6 mph 26.5 mph N/A   Overcast
1:53 PM 71.1 °F 69.1 °F 93% 29.86 in 10.0 mi SE 23.0 mph 29.9 mph N/A   Overcast
2:45 PM 73.0 °F 69.1 °F 87% 29.90 in 10.0 mi SE 17.3 mph 25.3 mph N/A   Mostly Cloudy
2:53 PM 73.0 °F 69.1 °F 87% 29.88 in 10.0 mi SE 17.3 mph 24.2 mph N/A   Mostly Cloudy
3:24 PM 72.0 °F 69.1 °F 91% 29.96 in 10.0 mi SSE 13.8 mph 20.7 mph N/A   Overcast
3:53 PM 73.0 °F 66.9 °F 81% 29.93 in 10.0 mi SE 13.8 mph - N/A   Mostly Cloudy
4:23 PM 73.0 °F 69.1 °F 87% 29.94 in 10.0 mi SSE 15.0 mph - 0.02 in Rain Light Rain
4:53 PM 73.9 °F 70.0 °F 87% 29.89 in 10.0 mi SSE 13.8 mph - 0.02 in   Clear
5:53 PM 72.0 °F 69.1 °F 91% 29.92 in 10.0 mi SSE 10.4 mph - 0.00 in Rain Light Rain
6:53 PM 70.0 °F 69.1 °F 97% 29.91 in 5.0 mi ESE 15.0 mph - 0.08 in Rain Rain
7:26 PM 69.1 °F 68.0 °F 96% 29.95 in 10.0 mi SSE 11.5 mph - 0.04 in Rain Light Rain
7:38 PM 69.1 °F 68.0 °F 96% 29.97 in 10.0 mi South 11.5 mph - 0.04 in Rain Light Rain
7:46 PM 69.1 °F 68.0 °F 96% 29.96 in 10.0 mi SSE 9.2 mph - 0.04 in Rain Light Rain
7:53 PM 68.0 °F 68.0 °F 100% 29.94 in 10.0 mi SSE 8.1 mph - 0.04 in   Mostly Cloudy
8:53 PM 68.0 °F 68.0 °F 100% 29.93 in 10.0 mi South 8.1 mph - 0.00 in   Mostly Cloudy
9:16 PM 68.0 °F 68.0 °F 100% 29.96 in 10.0 mi South 9.2 mph - N/A   Overcast
9:36 PM 68.0 °F 68.0 °F 100% 29.98 in 10.0 mi South 6.9 mph - N/A   Overcast
9:53 PM 68.0 °F 66.9 °F 96% 29.96 in 10.0 mi SSE 5.8 mph - N/A   Overcast
10:01 PM 68.0 °F 66.9 °F 96% 29.98 in 10.0 mi SE 4.6 mph - N/A   Mostly Cloudy
10:27 PM 68.0 °F 66.9 °F 96% 30.00 in 10.0 mi South 6.9 mph - N/A   Overcast
10:53 PM 68.0 °F 66.9 °F 96% 29.97 in 10.0 mi South 6.9 mph - N/A   Mostly Cloudy
11:06 PM 66.9 °F 66.0 °F 97% 29.99 in 10.0 mi South 5.8 mph - N/A   Scattered Clouds
11:53 PM 66.0 °F 64.9 °F 96% 29.97 in 10.0 mi South 3.5 mph - N/A   Mostly Cloudy